COSMOS 1275 DEB, 20087

Orbit data source: Space-Track

COSMOS 1275 DEB, 20087 is space debris in LEO originally from a launch on Thu, 04 Jun 1981 UTC launched from the Plesetsk Missile And Space Complex (PKMTR). Debris objects in space refer to the collection of defunct objects orbiting the Earth. Examples of debris include non-operational satellites, rocket bodies, and fragments generated from explosions, collisions, or faulty payload assembly.

Loading next visibility...
Identifier
20087, 1981-053MJ
Orbit
LEO
Country
Flag of CISCIS
Related business
Manufacturer
Unknown
Mission
Spacecraft
Bus & Motor
Unknown
Mass
Unknown
Launch date (UTC)
1981-06-04 (45 years ago)
Launch vehicle
Unknown
Launch site
Plesetsk Missile And Space Complex (PKMTR)
Object type
Payload
Rocket body
Debris
Shape & HBR
Unknown shape, 0.1 m
Radar Cross Section
Small (<0.1 m²)

Expand to show TLE details & history
Last TLE update: 15 hours ago

TLE from 15 hours ago
0 COSMOS 1275 DEB
1 20087U 81053MJ  26048.49878521  .00001409  00000-0  12779-2 0  9990
2 20087  82.9872 225.2564 0102729  95.7092 327.6338 13.80522477838004
Epoch: 2026-02-17T11:58Z
TLE epoch observation values (Epoch: 2026-02-17T11:58:15.042Z)
Latitude
61.97841°
Longitude
-88.49143°
Altitude
909.178 km
Speed
7.435 km/s
True Right ascension
15h 54m 11s
True Declination
61° 50' 19"
Sunlit
Object was in daylight at epoch
Visualization orbit readout
Latitude
Unknown
Longitude
Unknown
Altitude
Unknown
Speed
Unknown
Apparent Right ascension
Unknown
Apparent Declination
Unknown
Sunlit
N/A
Visualization observer readout
Local Sidereal Time
05:36:54
Azimuth
Unknown
Elevation
Unknown
Doppler factor
Unknown
Orbital elements
Apogee altitude
1,034.549 km
Perigee altitude
883.798 km
Semi-major axis
7,337.31 km
Eccentricity
0.01027
Inclination
82.9872°
RAAN
225.2564°
Arg. of periapsis
95.7092°
True anomaly
326.99672°
Mean anomaly
327.6338°
Eccentric anomaly
327.31596°
Mean motion
3.45333 °/min
Orbital period
104.25 mins
BSTAR
0.0012779
Loading maneuver chart data...
Computing Atmospheric mass density...
Loading historical data...
Loading historical data...
Loading historical data...
Loading historical data...
Loading historical data...
Loading historical data...
Loading historical data...

Documentation

Showing up to 5 results
|